Other Public Products
Issued by NWS Charleston, SC

Current Version | Previous Version | Text Only | Print | Product List | Glossary Off
Versions: 1 2 3 4 5 6 7 8 9 10 11 12 13 14 15 16 17 18 19 20 21 22 23 24 25 26 27 28 29 30 31 32 33 34 35 36 37 38 39 40 41 42 43 44 45 46 47 48 49 50

000
FPUS82 KCHS 181827
OPUCHS

TEST...KCHS/KSAV Gateway Observations...TEST
National Weather Service Charleston SC
100 PM EST SAT NOV 18 2017

NOTE: "fair" indicates few or no clouds below 12,000 feet with no
significant weather and/or obstructions to visibility.

SCZ050-WAZ558-NCZ071-TXZ119-213-PAZ071-DCZ001-FLZ074-172-MI076-
NYZ176-178-MAZ016-IL014-TNZ027-NJZ106-GAZ044-MD014-181900-

...Gateway Observations for Charleston International...

CITY           SKY/WX    TMP DP  RH WIND       PRES   REMARKS
Chas Airport   MOSUNNY   75  57  53 SW15      29.94F
6HR MIN TEMP:  45; 6HR MAX TEMP:  76;

Seattle        CLOUDY    47  35  63 SE8       30.27F
6HR MIN TEMP:  45; 6HR MAX TEMP:  47;

Charlotte      PTSUNNY   64  48  56 SW16G24   29.89F
6HR MIN TEMP:  40; 6HR MAX TEMP:  64;

Dallas DFW     MOSUNNY   70  42  36 N26G40    29.97R
6HR MIN TEMP:  66; 6HR MAX TEMP:  75;

Dallas Love    PTSUNNY   68  42  38 N25G38    29.98R
6HR MIN TEMP:  66; 6HR MAX TEMP:  75;

Philladelphia  CLOUDY    51  38  60 S12       29.77F
6HR MIN TEMP:  38; 6HR MAX TEMP:  52; 6HR PCP: TRACE;

Wash National  CLOUDY    60  39  45 S20G28    29.70F
6HR MIN TEMP:  41; 6HR MAX TEMP:  60;

Baltimore      CLOUDY    56  37  49 S6        29.71F
6HR MIN TEMP:  37; 6HR MAX TEMP:  57;

Miami          PTSUNNY   82  63  52 E10G16    29.95F
6HR MIN TEMP:  67; 6HR MAX TEMP:  83;

Detroit        RAIN      46  46 100 NE7       29.30F FOG
6HR MIN TEMP:  43; 6HR MAX TEMP:  47; 6HR PCP:  0.25;

Newark         CLOUDY    49  34  56 S10       29.77F
6HR MIN TEMP:  32; 6HR MAX TEMP:  49;

Laguardia      CLOUDY    50  34  54 S14G22    29.77F
6HR MIN TEMP:  39; 6HR MAX TEMP:  50;

J F K          CLOUDY    52  41  66 S22G28    29.80F
6HR MIN TEMP:  32; 6HR MAX TEMP:  52;

Boston Logan   CLOUDY    45  22  40 SW9       29.82F
6HR MIN TEMP:  33; 6HR MAX TEMP:  45;

Ft. Lauderdale MOSUNNY   80  66  62 NE9       29.95F
6HR MIN TEMP:  66; 6HR MAX TEMP:  80;

Chicago O`Hare LGT SNOW  35  33  92 N16       29.47R FOG     WCI  25
6HR MIN TEMP:  37; 6HR MAX TEMP:  44; 6HR PCP:  0.36;

Chicago Midway LGT RAIN  39  37  92 N18G33    29.45S WCI  30
6HR MIN TEMP:  39; 6HR MAX TEMP:  46; 6HR PCP:  0.47;

Houston Bush   MOSUNNY   83  70  64 W15G24    29.86F
6HR MIN TEMP:  71; 6HR MAX TEMP:  82;

Houston Hobby  PTSUNNY   82  69  64 SW23G29   29.86S
6HR MIN TEMP:  69; 6HR MAX TEMP:  82;

Nashville      CLOUDY    66  59  78 S20G31    29.60F
6HR MIN TEMP:  62; 6HR MAX TEMP:  66;

Atlanta        PTSUNNY   65  55  70 S14       29.88F
6HR MIN TEMP:  46; 6HR MAX TEMP:  66;


$$

GAZ044-118-TXZ119-213-NCZ071-DCZ001-MDZ014-506-PAZ021-071-NJZ106-
NYZ176-178-MAZ106-OHZ011-021-055-MIZ076-KYZ091-ILZ014-INZ047-
MNZ060-ONZ431-181900-

...Gateway Observations for Savannah International...

CITY           SKY/WX    TMP DP  RH WIND       PRES   REMARKS
Savannah Arpt  PTSUNNY   76  56  49 SW12      29.95F
6HR MIN TEMP:  50; 6HR MAX TEMP:  77;

Atlanta        PTSUNNY   65  55  70 S14       29.88F
6HR MIN TEMP:  46; 6HR MAX TEMP:  66;

Charlotte      PTSUNNY   64  48  56 SW16G24   29.89F
6HR MIN TEMP:  40; 6HR MAX TEMP:  64;

Dallas DFW     MOSUNNY   70  42  36 N26G40    29.97R
6HR MIN TEMP:  66; 6HR MAX TEMP:  75;

Houston Bush   MOSUNNY   83  70  64 W15G24    29.86F
6HR MIN TEMP:  71; 6HR MAX TEMP:  82;

Wash National  CLOUDY    60  39  45 S20G28    29.70F
6HR MIN TEMP:  41; 6HR MAX TEMP:  60;

Wash Dulles    PTSUNNY   57  38  48 S17G26    29.69F
6HR MIN TEMP:  40; 6HR MAX TEMP:  57;

Baltimore      CLOUDY    56  37  49 S6        29.71F
6HR MIN TEMP:  37; 6HR MAX TEMP:  57;

Philadelphia   CLOUDY    51  38  60 S12       29.77F
6HR MIN TEMP:  38; 6HR MAX TEMP:  52; 6HR PCP: TRACE;

Newark         CLOUDY    49  34  56 S10       29.77F
6HR MIN TEMP:  32; 6HR MAX TEMP:  49;

Laguardia      CLOUDY    50  34  54 S14G22    29.77F
6HR MIN TEMP:  39; 6HR MAX TEMP:  50;

J F K          CLOUDY    52  41  66 S22G28    29.80F
6HR MIN TEMP:  32; 6HR MAX TEMP:  52;

Boston         CLOUDY    45  22  40 SW9       29.82F
6HR MIN TEMP:  33; 6HR MAX TEMP:  45;

Pittsburg      LGT RAIN  46  45  96 E6        29.51F FOG
6HR MIN TEMP:  40; 6HR MAX TEMP:  46; 6HR PCP:  0.55;

Akron          RAIN      48  45  89 S16       29.42F FOG
6HR MIN TEMP:  44; 6HR MAX TEMP:  48; 6HR PCP:  0.64;

Cleveland      RAIN      51  49  92 S14       29.39F FOG
6HR MIN TEMP:  45; 6HR MAX TEMP:  50; 6HR PCP:  0.17;

Cincinnati     CLOUDY    64  58  80 SW29G46   29.33F
6HR MIN TEMP:  59; 6HR MAX TEMP:  64;

Columbus       CLOUDY    60  53  76 S21G33    29.35F
Detroit        RAIN      46  46 100 NE7       29.30F FOG
6HR MIN TEMP:  43; 6HR MAX TEMP:  47; 6HR PCP:  0.25;

Chicago O`Hare LGT SNOW  35  33  92 N16       29.47R FOG     WCI  25
6HR MIN TEMP:  37; 6HR MAX TEMP:  44; 6HR PCP:  0.36;

Minneapolis    SUNNY     36  23  59 NW18G25   29.82S WCI  26
6HR MIN TEMP:  31; 6HR MAX TEMP:  36;

Indianapolis   LGT RAIN  63  59  87 SW25G40   29.26F
6HR MIN TEMP:  59; 6HR MAX TEMP:  65; 6HR PCP:  0.16;

Toronto Canada DRZL/FOG  45  45 100 S3        29.44S VSB 1

$$




USA.gov is the U.S. government's official web portal to all federal, state and local government web resources and services.